Weather History for Pine Ridge, SD

Change the Weather History Date:

Wednesday, September 18, 2013

  Actual Average Record
Temperature  
Mean Temperature 77 °F 60 °F  
Max Temperature 93 °F 77 °F 98 °F (1998)
Min Temperature 60 °F 43 °F 27 °F (2006)
Degree Days  
Heating Degree Days 0 7  
Month to date heating degree days 16 78  
Since 1 July heating degree days 18 115  
Cooling Degree Days 12 2  
Month to date cooling degree days 134 57  
Year to date cooling degree days 786 705  
Growing Degree Days 26 (Base 50)    
Moisture  
Dew Point 48 °F    
Average Humidity 47    
Maximum Humidity 78    
Minimum Humidity 15    
Precipitation  
Precipitation 0.00 in 0.05 in 0.12 in (2002)
Month to date precipitation 0.06 1.00  
Year to date precipitation 14.33 14.79  
Sea Level Pressure  
Sea Level Pressure 29.62 in    
Wind  
Wind Speed 8 mph (WSW)    
Max Wind Speed 21 mph    
Max Gust Speed 28 mph    
Visibility 10 miles    
Events      
T = Trace of Precipitation, MM = Missing Value Source: NWS Daily Summary

Daily Weather History Graph

Daily Weather History Graph

Search for Another Location

Airport:

Trip Planner

Search our weather history database for the weather conditions in past years. The results will help you decide how hot, cold, wet, or windy it might be!

Date:

Astronomy

Sep. 18, 2013 Rise Set
Actual Time 6:33 AM MDT 6:54 PM MDT
Civil Twilight 6:04 AM MDT 7:22 PM MDT
Nautical Twilight 5:31 AM MDT 7:55 PM MDT
Astronomical Twilight 4:57 AM MDT 8:30 PM MDT
Moon 6:17 PM MDT (9/18) 5:37 AM MDT (9/18)
Length of Visible Light 13h 17m
Length of Day
12h 20m
Waxing Gibbous, 99% of the Moon is Illuminated
Sep 18
Waxing Gibbous
Sep 19
Full
Sep 26
Last Quarter
Oct 4
New
Oct 11
First Quarter

Hourly Weather History & Observations

Time (MDT) Temp. Dew Point Humidity Pressure Visibility Wind Dir Wind Speed Gust Speed Precip Events Conditions
12:52 AM 64.9 °F 48.9 °F 56% 29.62 in 10.0 mi SSW 8.1 mph - N/A   Clear
1:52 AM 68.0 °F 50.0 °F 52% 29.60 in 10.0 mi SW 4.6 mph - N/A   Clear
2:52 AM 64.0 °F 51.1 °F 63% 29.60 in 10.0 mi SW 4.6 mph - N/A   Clear
3:52 AM 64.9 °F 53.1 °F 65% 29.58 in 10.0 mi West 8.1 mph - N/A   Clear
4:52 AM 64.9 °F 55.0 °F 70% 29.60 in 10.0 mi South 8.1 mph - N/A   Scattered Clouds
5:52 AM 64.9 °F 55.0 °F 70% 29.58 in 10.0 mi South 4.6 mph - N/A   Clear
6:52 AM 61.0 °F 54.0 °F 78% 29.62 in 10.0 mi SSW 3.5 mph - N/A   Clear
7:52 AM 69.1 °F 55.0 °F 61% 29.62 in 10.0 mi WSW 4.6 mph - N/A   Clear
8:52 AM 75.0 °F 48.9 °F 40% 29.62 in 10.0 mi WSW 11.5 mph - N/A   Clear
9:52 AM 77.0 °F 48.9 °F 37% 29.62 in 10.0 mi West 11.5 mph - N/A   Clear
10:52 AM 81.0 °F 48.9 °F 33% 29.62 in 10.0 mi WSW 8.1 mph - N/A   Clear
11:52 AM 82.0 °F 48.9 °F 31% 29.61 in 10.0 mi WSW 6.9 mph - N/A   Clear
12:52 PM 88.0 °F 48.0 °F 25% 29.60 in 10.0 mi SW 5.8 mph 16.1 mph N/A   Clear
1:52 PM 89.1 °F 46.0 °F 22% 29.57 in 10.0 mi WNW 11.5 mph - N/A   Clear
2:52 PM 91.0 °F 45.0 °F 20% 29.55 in 10.0 mi SW 9.2 mph - N/A   Clear
3:52 PM 89.1 °F 35.1 °F 15% 29.56 in 10.0 mi SW 16.1 mph 25.3 mph N/A   Clear
4:52 PM 90.0 °F 39.9 °F 17% 29.55 in 10.0 mi WSW 17.3 mph 24.2 mph N/A   Clear
5:52 PM 82.9 °F 42.1 °F 24% 29.57 in 10.0 mi SW 6.9 mph - N/A   Clear
6:52 PM 81.0 °F 42.1 °F 25% 29.59 in 8.0 mi West 5.8 mph - N/A   Partly Cloudy
7:52 PM 73.0 °F 45.0 °F 37% 29.62 in 10.0 mi Calm Calm - N/A   Clear
8:52 PM 70.0 °F 48.9 °F 47% 29.66 in 10.0 mi NNE 12.7 mph - N/A   Clear
9:52 PM 66.0 °F 48.9 °F 54% 29.70 in 10.0 mi Calm Calm - N/A   Clear
10:52 PM 64.9 °F 50.0 °F 58% 29.73 in 10.0 mi North 3.5 mph - N/A   Clear
11:52 PM 64.0 °F 52.0 °F 65% 29.77 in 10.0 mi North 16.1 mph 21.9 mph N/A   Clear